| time (UTC) | temp C | wind direction | speed KPH | gust KPH | rain 1hr cm | rain 24hr cm | rain mn cm | humidity % | barometer mb |
| 20260507200020 | 19 | 228 | 12.9 | 30.6 | 0.00 | 0.00 | 0.00 | 53 | 1012.5 |
| 20260507194525 | 19 | 267 | 14.5 | 32.2 | 0.00 | 0.00 | 0.00 | 52 | 1012.8 |
| 20260507193017 | 18 | 250 | 8.0 | 22.5 | 0.00 | 0.00 | 0.00 | 58 | 1012.9 |
| 20260507191515 | 18 | 285 | 9.7 | 24.1 | 0.00 | 0.00 | 0.00 | 54 | 1013.1 |
| 20260507190014 | 18 | 195 | 14.5 | 30.6 | 0.00 | 0.00 | 0.00 | 53 | 1013.3 |
| 20260507184508 | 18 | 202 | 6.4 | 19.3 | 0.00 | 0.00 | 0.00 | 54 | 1013.4 |
| 20260507183011 | 17 | 360 | 11.3 | 32.2 | 0.00 | 0.00 | 0.00 | 56 | 1013.7 |
| 20260507181507 | 17 | 360 | 9.7 | 24.1 | 0.00 | 0.00 | 0.00 | 56 | 1013.9 |
| 20260507180004 | 17 | 360 | 6.4 | 24.1 | 0.00 | 0.00 | 0.00 | 58 | 1014.1 |
| 20260507174603 | 17 | 360 | 9.7 | 29.0 | 0.00 | 0.00 | 0.00 | 55 | 1014.5 |
| 20260507173129 | 17 | 360 | 4.8 | 27.4 | 0.00 | 0.00 | 0.00 | 58 | 1014.8 |
| 20260507171557 | 16 | 360 | 11.3 | 29.0 | 0.00 | 0.00 | 0.00 | 57 | 1014.9 |
| 20260507170050 | 16 | 360 | 8.0 | 27.4 | 0.00 | 0.00 | 0.00 | 57 | 1015.2 |
| 20260507164549 | 16 | 360 | 11.3 | 22.5 | 0.00 | 0.00 | 0.00 | 58 | 1015.4 |
| 20260507163045 | 16 | 360 | 11.3 | 22.5 | 0.00 | 0.00 | 0.00 | 59 | 1015.8 |
| 20260507161549 | 16 | 360 | 11.3 | 22.5 | 0.00 | 0.00 | 0.00 | 58 | 1015.7 |
| 20260507160049 | 15 | 360 | 8.0 | 20.9 | 0.00 | 0.00 | 0.00 | 61 | 1015.8 |
| 20260507154541 | 15 | 360 | 6.4 | 22.5 | 0.00 | 0.00 | 0.00 | 64 | 1016.0 |
| 20260507153035 | 14 | 360 | 9.7 | 29.0 | 0.00 | 0.00 | 0.00 | 63 | 1016.1 |
| 20260507151534 | 14 | 360 | 6.4 | 16.1 | 0.00 | 0.00 | 0.00 | 65 | 1016.1 |
| 20260507150037 | 13 | 360 | 8.0 | 20.9 | 0.00 | 0.00 | 0.00 | 66 | 1016.3 |
| 20260507144527 | 13 | 360 | 8.0 | 19.3 | 0.00 | 0.00 | 0.00 | 67 | 1016.5 |
| 20260507143025 | 12 | 360 | 4.8 | 20.9 | 0.00 | 0.00 | 0.00 | 69 | 1016.6 |
| 20260507141521 | 12 | 360 | 6.4 | 14.5 | 0.00 | 0.00 | 0.00 | 70 | 1016.6 |
| 20260507140020 | 12 | 360 | 4.8 | 16.1 | 0.00 | 0.00 | 0.00 | 73 | 1016.8 |
| 20260507134517 | 11 | 360 | 8.0 | 16.1 | 0.00 | 0.00 | 0.00 | 75 | 1016.8 |
| 20260507133017 | 10 | 360 | 4.8 | 12.9 | 0.00 | 0.00 | 0.00 | 79 | 1016.6 |
| 20260507131511 | 9 | 360 | 3.2 | 11.3 | 0.00 | 0.00 | 0.00 | 81 | 1016.8 |
| 20260507130004 | 8 | 360 | 3.2 | 9.7 | 0.00 | 0.00 | 0.00 | 82 | 1017.0 |
| 20260507124504 | 8 | 360 | 3.2 | 9.7 | 0.00 | 0.00 | 0.00 | 83 | 1017.1 |
| 20260507123002 | 7 | 360 | 1.6 | 8.0 | 0.00 | 0.00 | 0.00 | 83 | 1017.1 |
| 20260507121502 | 7 | 237 | 3.2 | 8.0 | 0.00 | 0.00 | 0.00 | 85 | 1017.0 |
| 20260507120004 | 6 | 313 | 1.6 | 6.4 | 0.00 | 0.00 | 0.00 | 86 | 1017.0 |
| 20260507114502 | 6 | 295 | 1.6 | 6.4 | 0.00 | 0.00 | 0.00 | 87 | 1017.0 |
| 20260507113100 | 5 | 308 | 1.6 | 6.4 | 0.00 | 0.00 | 0.00 | 87 | 1016.9 |
| 20260507111607 | 5 | 304 | 1.6 | 6.4 | 0.00 | 0.00 | 0.00 | 88 | 1016.8 |
| 20260507104601 | 5 | 309 | 0.0 | 1.6 | 0.00 | 0.00 | 0.00 | 87 | 1016.8 |
| 20260507103058 | 5 | 309 | 0.0 | 1.6 | 0.00 | 0.00 | 0.00 | 86 | 1016.8 |
| 20260507101554 | 5 | 309 | 0.0 | 1.6 | 0.00 | 0.00 | 0.00 | 84 | 1017.0 |
| 20260507100053 | 5 | 309 | 0.0 | 1.6 | 0.00 | 0.00 | 0.00 | 82 | 1017.0 |
| 20260507094558 | 6 | 309 | 0.0 | 4.8 | 0.00 | 0.00 | 0.00 | 81 | 1017.1 |
| 20260507093048 | 6 | 309 | 0.0 | 0.0 | 0.00 | 0.00 | 0.00 | 80 | 1017.2 |
| 20260507091547 | 6 | 309 | 0.0 | 0.0 | 0.00 | 0.00 | 0.00 | 79 | 1017.2 |
| 20260507090046 | 6 | 295 | 0.0 | 0.0 | 0.00 | 0.00 | 0.00 | 79 | 1017.3 |
| 20260507084547 | 6 | 294 | 0.0 | 3.2 | 0.00 | 0.00 | 0.00 | 78 | 1017.3 |
| 20260507083044 | 6 | 296 | 0.0 | 3.2 | 0.00 | 0.00 | 0.00 | 78 | 1017.4 |
| 20260507081544 | 6 | 292 | 0.0 | 3.2 | 0.00 | 0.00 | 0.00 | 79 | 1017.4 |
| 20260507080045 | 6 | 313 | 0.0 | 0.0 | 0.00 | 0.00 | 0.00 | 79 | 1017.5 |
| 20260507074546 | 7 | 313 | 0.0 | 0.0 | 0.00 | 0.00 | 0.00 | 77 | 1017.5 |
| 20260507073043 | 7 | 313 | 0.0 | 3.2 | 0.00 | 0.00 | 0.00 | 74 | 1017.5 |
| 20260507071538 | 7 | 313 | 0.0 | 3.2 | 0.00 | 0.00 | 0.00 | 73 | 1017.7 |
| 20260507070044 | 7 | 321 | 0.0 | 3.2 | 0.00 | 0.00 | 0.00 | 72 | 1017.8 |
| 20260507064541 | 8 | 315 | 0.0 | 0.0 | 0.00 | 0.00 | 0.00 | 72 | 1017.9 |
| 20260507063035 | 8 | 316 | 0.0 | 3.2 | 0.00 | 0.00 | 0.00 | 71 | 1017.9 |
| 20260507061531 | 8 | 317 | 0.0 | 4.8 | 0.00 | 0.00 | 0.00 | 70 | 1018.1 |
| 20260507060029 | 8 | 317 | 0.0 | 3.2 | 0.00 | 0.00 | 0.00 | 72 | 1018.1 |
| 20260507054525 | 7 | 306 | 0.0 | 3.2 | 0.00 | 0.00 | 0.00 | 79 | 1018.2 |
| 20260507053023 | 7 | 306 | 0.0 | 0.0 | 0.00 | 0.08 | 0.00 | 85 | 1018.2 |
| 20260507051523 | 7 | 306 | 0.0 | 0.0 | 0.00 | 0.08 | 0.00 | 86 | 1018.1 |
| 20260507050028 | 6 | 306 | 0.0 | 0.0 | 0.00 | 0.08 | 0.00 | 86 | 1018.1 |
| 20260507044522 | 6 | 306 | 0.0 | 0.0 | 0.00 | 0.08 | 0.00 | 85 | 1018.1 |
| 20260507043021 | 6 | 306 | 0.0 | 0.0 | 0.00 | 0.08 | 0.00 | 84 | 1018.2 |
| 20260507041521 | 6 | 306 | 0.0 | 0.0 | 0.00 | 0.08 | 0.00 | 84 | 1018.1 |
| 20260507040020 | 6 | 306 | 0.0 | 0.0 | 0.00 | 0.08 | 0.00 | 83 | 1018.3 |
| 20260507034522 | 6 | 306 | 0.0 | 1.6 | 0.00 | 0.08 | 0.00 | 83 | 1018.4 |
| 20260507033027 | 5 | 306 | 0.0 | 3.2 | 0.00 | 0.08 | 0.00 | 83 | 1018.4 |
| 20260507031524 | 6 | 306 | 0.0 | 0.0 | 0.00 | 0.08 | 0.00 | 82 | 1018.3 |
| 20260507030019 | 6 | 306 | 0.0 | 0.0 | 0.00 | 0.08 | 0.00 | 81 | 1018.3 |
| 20260507024521 | 6 | 306 | 0.0 | 0.0 | 0.00 | 0.08 | 0.00 | 80 | 1018.2 |
| 20260507023017 | 6 | 306 | 0.0 | 0.0 | 0.00 | 0.08 | 0.00 | 78 | 1018.1 |
| 20260507021517 | 7 | 306 | 0.0 | 0.0 | 0.00 | 0.08 | 0.00 | 77 | 1017.9 |
| 20260507020022 | 8 | 306 | 0.0 | 3.2 | 0.00 | 0.08 | 0.00 | 74 | 1017.8 |
| 20260507014520 | 8 | 306 | 0.0 | 3.2 | 0.00 | 0.08 | 0.00 | 70 | 1017.7 |
| 20260507013017 | 10 | 306 | 0.0 | 0.0 | 0.00 | 0.08 | 0.00 | 65 | 1017.6 |
| 20260507011527 | 11 | 306 | 1.6 | 3.2 | 0.00 | 0.08 | 0.00 | 57 | 1017.6 |
| 20260507010018 | 13 | 360 | 1.6 | 3.2 | 0.00 | 0.08 | 0.00 | 50 | 1017.4 |
| 20260507004514 | 15 | 360 | 0.0 | 3.2 | 0.00 | 0.08 | 0.00 | 43 | 1017.4 |
| 20260507003013 | 16 | 360 | 1.6 | 6.4 | 0.00 | 0.08 | 0.00 | 36 | 1017.5 |
| 20260507001519 | 16 | 360 | 0.0 | 12.9 | 0.00 | 0.08 | 0.00 | 38 | 1017.4 |
| 20260507000015 | 16 | 88 | 1.6 | 6.4 | 0.00 | 0.08 | 0.00 | 35 | 1017.5 |
| 20260506234512 | 16 | 360 | 6.4 | 14.5 | 0.00 | 0.08 | 0.00 | 34 | 1017.6 |
| 20260506233012 | 16 | 355 | 6.4 | 14.5 | 0.00 | 0.08 | 0.00 | 34 | 1017.6 |
| 20260506231511 | 16 | 11 | 3.2 | 16.1 | 0.00 | 0.08 | 0.00 | 37 | 1017.6 |
| 20260506230011 | 16 | 300 | 4.8 | 19.3 | 0.00 | 0.08 | 0.00 | 34 | 1017.6 |
| 20260506224511 | 16 | 360 | 6.4 | 16.1 | 0.00 | 0.08 | 0.00 | 34 | 1017.6 |
| 20260506223015 | 16 | 360 | 8.0 | 17.7 | 0.00 | 0.08 | 0.00 | 34 | 1017.7 |
| 20260506221508 | 16 | 355 | 6.4 | 14.5 | 0.00 | 0.08 | 0.00 | 35 | 1017.7 |
| 20260506220009 | 15 | 192 | 4.8 | 12.9 | 0.00 | 0.08 | 0.00 | 34 | 1017.8 |
| 20260506214508 | 16 | 360 | 4.8 | 9.7 | 0.00 | 0.08 | 0.00 | 35 | 1017.8 |
| 20260506213006 | 15 | 360 | 8.0 | 19.3 | 0.00 | 0.08 | 0.00 | 34 | 1018.2 |
| 20260506211505 | 16 | 313 | 3.2 | 12.9 | 0.00 | 0.08 | 0.00 | 35 | 1018.3 |
| 20260506210012 | 16 | 360 | 3.2 | 12.9 | 0.00 | 0.08 | 0.00 | 35 | 1018.5 |
| 20260506204505 | 16 | 360 | 6.4 | 14.5 | 0.00 | 0.08 | 0.00 | 35 | 1018.8 |
| 20260506203006 | 15 | 360 | 6.4 | 20.9 | 0.00 | 0.08 | 0.00 | 37 | 1019.0 |
| 20260506201503 | 15 | 360 | 9.7 | 19.3 | 0.00 | 0.08 | 0.00 | 34 | 1019.1 |